Regional Weather Roundup
Issued by NWS

Home | Current Version | Previous Version | Graphics & Text | Print | Product List | Glossary On
Versions: 1 2 3 4 5 6 7 8 9 10 11 12 13 14 15 16 17 18 19 20 21 22 23 24 25 26 27 28 29 30 31 32 33 34 35 36 37 38 39 40 41 42 43 44 45 46 47 48 49 50
435
ASUS43 KFSD 201410
RWRSD

WEATHER ROUNDUP FOR SOUTH DAKOTA
NATIONAL WEATHER SERVICE SIOUX FALLS SD
800 AM CST FRI JAN 20 2017

NOTE: "FAIR" INDICATES FEW OR NO CLOUDS BELOW 12,000 FEET WITH NO
SIGNIFICANT WEATHER AND/OR OBSTRUCTIONS TO VISIBILITY.


SDZ001>005-009-010-012>017-201500-
NORTHWEST AND NORTH CENTRAL SOUTH DAKOTA

CITY           SKY/WX    TMP DP  RH WIND       PRES   REMARKS
BUFFALO          N/A     30  23  75 NW18      29.32S WCI  18
FAITH            N/A     22  20  92 NW13      29.35S WCI  10
MOBRIDGE       FOG       23  20  88 MISG      29.35S VSB 3/4
$$

SDZ012>016-024>037-041>051-057-063-072>074-201500-
SOUTHWEST AND SOUTH CENTRAL SOUTH DAKOTA

CITY           SKY/WX    TMP DP  RH WIND       PRES   REMARKS
RAPID CTY ARPT CLOUDY    31  24  75 W9        29.38S WCI  23
PIERRE         FOG       14  12  92 W8        29.38S VSB 1/2 WCI   3
CUSTER         CLOUDY    28  18  66 NW5       29.37S WCI  23
ELLSWORTH AFB  CLOUDY    37  27  65 N20       29.36F
PHILIP         CLOUDY    18  15  88 W12       29.37S WCI   5
PINE RIDGE     CLOUDY    21  19  92 CALM      29.40S
SPEARFISH      FAIR      32  23  69 W9        29.42S WCI  24
WINNER         FAIR      26  22  84 SW5       29.40R WCI  20
$$

SDZ004>011-016>023-039-040-201500-
NORTHEAST SOUTH DAKOTA

CITY           SKY/WX    TMP DP  RH WIND       PRES   REMARKS
ABERDEEN       CLOUDY    34  32  92 E10       29.45S WCI  26
WATERTOWN      CLOUDY    35  35 100 SE10      29.47S FOG     WCI  27
BROOKINGS      CLOUDY    35  34  96 SE12      29.47F FOG     WCI  27
SISSETON         N/A     34  34 100 S9        29.50S WCI  27
$$

SDZ017-020-022-023-036>040-048>070-201500-
SOUTHEAST SOUTH DAKOTA

CITY           SKY/WX    TMP DP  RH WIND       PRES   REMARKS
SIOUX FALLS    FOG       37  37 100 SE10      29.50S VSB 3/4
HURON          CLOUDY    36  36 100 SE10      29.44R
CHAMBERLAIN    CLEAR     29  29 100 CALM      29.40R FOG
MITCHELL       CLOUDY    38  37  97 SE10      29.46R
YANKTON        CLOUDY    36  34  93 SE9       29.49S
$$

ABBREVIATIONS USED IN REMARKS
   TC - TEMPERATURE IN CELSIUS
  WCI - WIND CHILL INDEX
   HX - HEAT INDEX
  VSB - VISIBILITY





USA.gov is the U.S. government's official web portal to all federal, state and local government web resources and services.